Zurück zum Katalog

STARLINK-35358

AktivKommunikationVLEO
NORAD 66564·PAYLOAD·🇺🇸 United States

Gestartet Nov 21, 2025 von Cape Canaveral Space Force Station

Loading…

Nächste Überflüge (nächste 24 Stunden)

TLE

AktuellSource: CelesTrak SupGP

Epoche: Sep 15, 2026, 03:21 UTC

1 66564C 25268H   26258.14006944  .00042368  00000+0  15347-2 0  2583
2 66564  43.0036 356.9959 0002154 274.1066 152.3912 15.27552507    12

Verfolge STARLINK-35358 in Echtzeit mit AllMySat

Download on the App Store